CAPE
0 0 2 1 0 56 311 897 1179 2195 2682 2857 2171 2773 3615 3876 4114 4478 3683 3077 3307 3658 3210 3103 3253 3056 2252 1676 1728 1477 2184 1794 1328 1698 1287 887 568 888 778 649 748 639 79
0 0 0 0 0 78 243 556 1278 1891 2271 2323 2382 2445 2639 3598 4053 3898 3129 2348 3152 2867 3137 2906 2978 2387 2202 2314 2247 1726 1382 1400 968 1204 965 550 588 423 658 549 791 1057 660
1 11 132 169 170 138 290 578 1364 1421 1794 2081 2073 2282 2755 3165 3374 3505 2781 2601 2868 2872 3153 3057 2504 2417 2470 1807 1936 2017 1160 811 921 903 1136 381 508 140 82 398 674 814 148
42 27 77 298 325 237 415 591 937 1203 1400 1453 2407 2164 2541 2585 2712 2863 2956 3181 3142 3030 3051 2619 2274 2098 1888 1911 1918 1233 801 1142 1210 1000 910 481 86 39 15 170 311 824 214
95 60 86 307 223 58 118 450 782 1274 1089 1285 1685 2092 2860 2791 2314 3271 3257 3457 3490 3019 2843 2161 2139 1627 1257 1353 942 1679 1567 922 1160 1456 1246 560 236 20 119 10 360 363 173
230 236 212 182 147 300 688 757 1310 1658 1743 1841 2034 2138 2933 1978 1650 2082 3022 3162 2629 2419 2266 1982 1755 568 367 86 17 0 569 1390 1150 1114 335 245 544 110 451 296 791 111 126
370 327 262 283 216 151 195 511 1180 2255 2637 2701 2636 2820 3252 3144 1232 1908 2012 2683 2615 2750 2289 2022 1513 1084 765 744 35 0 0 0 31 1024 925 890 674 420 205 381 196 444 706
370 428 248 305 263 164 611 587 1671 2614 3210 3578 3642 3437 3811 1777 243 1171 1334 2183 2154 1986 1785 1721 1694 1404 831 620 563 268 310 442 316 365 864 721 450 473 804 642 639 584 612
372 368 322 302 311 374 519 1046 2157 2911 3345 3695 3724 3632 2946 738 15 807 1153 1909 1709 1465 1274 1148 989 946 704 223 856 724 809 523 0 0 56 47 1 10 169 715 715 294 151
276 264 355 305 380 730 891 1806 2343 3032 3287 3160 2815 3279 1982 1372 0 534 663 1179 1574 996 1106 1188 61 808 0 62 1083 1263 1051 945 371 313 24 4 3 10 3 638 1006 285 53
307 360 366 397 723 887 1840 2357 2555 2943 2379 2254 2489 2103 1611 1078 7 0 0 1053 921 946 830 1016 515 1 0 0 0 1457 891 939 145 750 390 116 143 152 45 323 857 97 86
294 266 271 469 787 1188 1950 2155 2408 1708 1959 2261 2261 1702 1363 390 0 1 0 41 427 883 741 727 53 1 1 1 197 0 0 102 995 1196 754 421 268 95 72 421 678 313 64
224 268 255 794 743 1313 1958 1218 1362 1587 1903 1722 1575 1416 936 458 102 1 0 0 0 1013 65 67 1 1 1 0 2 0 2 39 256 705 639 736 364 102 93 518 284 513 352
55 59 390 550 723 1075 1096 1239 1616 1746 1653 1370 1130 693 627 541 328 197 23 36 2 0 0 0 0 0 0 0 0 4 392 444 375 417 520 332 134 75 86 537 232 269 384
72 324 587 647 884 748 422 670 1378 1380 920 1050 831 544 472 434 311 127 162 302 527 64 7 10 49 105 124 187 285 304 549 205 156 355 103 40 17 24 77 89 79 82 65
117 485 588 599 31 87 35 1 0 0 0 0 125 234 8 0 0 0 0 0 0 0 101 202 120 113 184 309 400 447 207 15 83 112 131 51 23 24 34 33 44 51 96
165 430 214 109 368 342 194 23 2 0 1 1 0 0 0 1 3 0 0 0 0 0 305 294 172 152 115 108 129 126 269 122 51 70 98 119 35 29 8 29 50 23 41
11 131 691 606 443 392 204 189 270 181 79 0 0 0 0 1 2 1 0 0 4 58 151 73 63 108 118 108 80 46 42 52 70 26 69 52 41 24 42 21 29 45 2
185 372 384 540 165 47 237 197 108 44 5 2 1 0 0 1 2 0 0 6 3 0 12 83 60 87 62 29 21 21 25 27 17 39 39 70 45 75 35 53 0 0 0
242 75 105 259 68 184 164 117 9 12 17 10 4 3 0 2 4 20 58 25 25 0 0 18 49 43 52 36 22 19 19 4 11 46 55 42 60 38 1 85 24 96 34
67 4 100 337 305 178 83 32 27 23 19 15 13 0 0 8 5 1 0 9 1 0 10 29 23 19 5 21 50 38 53 85 94 79 61 40 3 0 7 1 39 48 94
153 365 316 213 165 134 50 4 7 9 9 1 0 0 0 0 0 1 0 0 0 0 0 3 3 3 1 10 33 66 48 96 51 50 57 2 18 146 190 164 74 87 142
248 304 269 139 103 1 10 13 6 15 5 2 0 0 0 1 1 0 0 0 0 2 1 2 1 1 0 0 0 37 0 9 36 97 163 170 147 156 95 14 1 0 0
337 316 205 137 27 11 11 14 4 1 2 0 0 1 0 0 0 0 0 0 0 0 0 0 0 0 0 0 0 0 0 0 2 4 22 10 0 0 0 0 0 0 0
166 71 7 3 6 7 14 11 10 2 0 0 0 0 0 0 0 0 0 0 0 0 0 0 0 0 0 0 0 0 0 0 0 0 0 0 0 0 0 0 0 0 0
72 17 5 9 9 8 8 7 4 5 0 0 0 0 0 0 0 0 0 0 0 0 0 0 0 0 0 0 0 0 0 0 0 0 0 0 0 0 0 0 0 0 0
CIN
-0 -0 -27 -15 -0 -92 -28 -11 -32 -16 -20 -16 -73 -58 -37 -34 -31 -13 -21 -15 -11 -1 -1 -0 -0 -0 -0 -0 -0 -0 -5 -5 -9 -12 -1 -7 -29 -0 -0 -0 -11 -0 -73
-0 -0 -0 -0 -0 -44 -11 -21 -31 -21 -26 -40 -45 -44 -55 -33 -13 -18 -56 -40 -0 -16 -0 -0 -0 -0 -0 -0 -2 -6 -1 -24 -0 -6 -1 -8 -1 -1 -0 -0 -0 -1 -0
-0 -0 -12 -6 -0 -3 -13 -21 -14 -32 -32 -44 -46 -39 -34 -16 -14 -12 -55 -36 -1 -4 -0 -0 -0 -0 -0 -0 -0 -3 -0 -1 -0 -2 -0 -1 -0 -5 -5 -0 -0 -0 -31
-0 -0 -0 -8 -0 -0 -0 -15 -17 -32 -49 -73 -40 -43 -24 -19 -10 -19 -20 -7 -2 -2 -1 -3 -1 -0 -0 -0 -0 -0 -0 -5 -2 -11 -0 -0 -16 -27 -0 -0 -0 -0 -3
-0 -0 -0 -5 -35 -9 -1 -1 -6 -12 -48 -62 -49 -38 -3 -1 -9 -0 -4 -0 -0 -0 -0 -0 -0 -2 -4 -2 -0 -0 -0 -1 -14 -2 -0 -0 -0 -1 -2 -7 -0 -0 -3
-0 -0 -0 -24 -17 -11 -0 -10 -0 -0 -8 -21 -21 -20 -1 -17 -24 -24 -1 -0 -0 -0 -0 -0 -2 -112 -146 -244 -235 -0 -18 -3 -0 -4 -0 -1 -0 -1 -0 -0 -0 -2 -1
-0 -0 -3 -21 -20 -9 -9 -0 -0 -0 -0 -3 -2 -0 -0 -1 -141 -70 -35 -0 -0 -0 -0 -0 -0 -0 -17 -11 -11 -0 -0 -0 -39 -3 -0 -2 -0 -0 -3 -0 -0 -0 -1
-0 -0 -9 -16 -8 -12 -0 -0 -0 -0 -0 -0 -0 -0 -0 -91 -488 -168 -81 -0 -0 -0 -0 -0 -0 -2 -9 -0 -2 -24 -10 -7 -15 -1 -0 -0 -0 -0 -0 -0 -0 -0 -0
-0 -0 -7 -19 -8 -1 -0 -0 -0 -0 -0 -0 -0 -0 -2 -289 -181 -183 -48 -0 -0 -0 -0 -0 -0 -0 -7 -51 -0 -1 -0 -10 -0 -0 -3 -1 -14 -53 -24 -0 -0 -0 -8
-0 -1 -3 -12 -0 -0 -0 -0 -0 -0 -0 -0 -1 -0 -38 -107 -0 -177 -75 -0 -0 -0 -0 -9 -237 -21 -0 -148 -2 -0 -0 -0 -0 -1 -37 -2 -2 -4 -116 -7 -0 -2 -0
-0 -0 -0 -1 -0 -0 -0 -0 -0 -0 -6 -6 -7 -6 -30 -86 -107 -0 -0 -36 -0 -0 -0 -0 -57 -0 -0 -0 -0 -0 -3 -2 -13 -1 -0 -4 -1 -0 -43 -0 -0 -0 -1
-0 -0 -3 -3 -0 -0 -0 -0 -2 -13 -9 -1 -0 -6 -1 -146 -0 -0 -0 -104 -47 -0 -4 -17 -12 -0 -0 -0 -20 -0 -0 -24 -1 -0 -0 -0 -0 -1 -1 -0 -0 -0 -1
-0 -0 -2 -0 -2 -0 -0 -15 -21 -13 -0 -0 -0 -0 -8 -55 -223 -0 -0 -0 -0 -19 -13 -2 -0 -0 -0 -0 -0 -0 -85 -56 -19 -0 -1 -0 -0 -0 -10 -1 -0 -0 -0
-26 -31 -0 -6 -2 -1 -18 -11 -3 -1 -0 -0 -0 -12 -12 -10 -68 -104 -14 -6 -15 -0 -0 -0 -0 -0 -0 -0 -0 -3 -0 -0 -3 -2 -0 -1 -11 -1 -1 -0 -0 -0 -0
-22 -0 -1 -0 -1 -37 -18 -129 -7 -17 -19 -0 -1 -10 -15 -17 -47 -106 -50 -6 -0 -24 -20 -16 -35 -40 -5 -0 -0 -2 -0 -7 -13 -1 -19 -11 -6 -0 -0 -0 -0 -14 -1
-17 -0 -0 -1 -165 -90 -136 -0 -0 -0 -0 -0 -63 -41 -34 -0 -0 -0 -0 -0 -0 -0 -12 -5 -14 -10 -0 -0 -0 -1 -0 -3 -3 -0 -0 -4 -1 -1 -0 -0 -3 -1 -0
-1 -0 -32 -88 -18 -37 -67 -191 -217 -0 -0 -0 -0 -0 -0 -0 -0 -0 -0 -0 -0 -0 -3 -3 -21 -0 -0 -0 -0 -1 -1 -1 -9 -6 -1 -0 -10 -0 -2 -13 -7 -0 -0
-47 -35 -0 -0 -11 -19 -35 -59 -29 -10 -61 -0 -0 -0 -0 -0 -0 -0 -0 -0 -1 -5 -0 -0 -0 -0 -0 -0 -0 -0 -0 -2 -3 -0 -1 -5 -10 -0 -11 -2 -5 -0 -4
-8 -1 -2 -0 -27 -31 -0 -1 -4 -22 -0 -0 -0 -0 -0 -0 -0 -0 -0 -1 -0 -0 -9 -0 -5 -0 -1 -12 -0 -0 -0 -0 -0 -0 -13 -0 -6 -0 -7 -2 -9 -0 -2
-1 -86 -34 -8 -16 -7 -4 -5 -5 -0 -0 -0 -0 -0 -0 -0 -0 -4 -0 -1 -4 -0 -0 -11 -7 -4 -2 -9 -0 -0 -0 -3 -2 -0 -1 -2 -0 -0 -28 -1 -9 -1 -2
-12 -46 -8 -1 -0 -5 -24 -1 -3 -0 -0 -0 -0 -1 -5 -0 -0 -0 -0 -12 -3 -0 -13 -29 -17 -21 -21 -7 -3 -0 -1 -0 -1 -1 -0 -2 -32 -0 -30 -1 -4 -0 -0
-10 -0 -0 -0 -0 -0 -1 -1 -2 -0 -0 -0 -0 -0 -0 -0 -0 -0 -0 -0 -0 -1 -0 -0 -0 -23 -1 -2 -1 -1 -4 -1 -1 -1 -1 -35 -26 -0 -5 -11 -20 -9 -3
-0 -0 -0 -6 -0 -1 -0 -0 -0 -0 -0 -0 -0 -0 -0 -0 -0 -0 -0 -0 -0 -0 -0 -0 -0 -0 -0 -0 -0 -2 -0 -35 -8 -7 -2 -0 -0 -0 -1 -29 -23 -0 -0
-4 -0 -1 -7 -5 -0 -0 -0 -0 -1 -0 -0 -0 -0 -0 -0 -0 -0 -0 -0 -0 -0 -0 -0 -0 -0 -0 -0 -0 -0 -0 -0 -1 -0 -18 -0 -2 -0 -0 -0 -0 -0 -0
-1 -3 -14 -0 -0 -0 -0 -0 -0 -0 -0 -0 -0 -0 -0 -0 -0 -0 -0 -0 -0 -0 -0 -0 -0 -0 -0 -0 -0 -0 -0 -0 -0 -0 -0 -0 -0 -0 -0 -0 -0 -0 -0
-16 -14 -0 -0 -0 -0 -0 -0 -0 -0 -0 -0 -0 -0 -0 -0 -0 -0 -0 -0 -0 -0 -0 -0 -0 -0 -0 -0 -0 -0 -0 -0 -0 -0 -0 -0 -0 -0 -0 -0 -0 -0 -0
Wind_Speed
14 13 12 10 12 12 12 13 13 12 12 13 15 15 14 14 15 14 13 12 13 11 10 12 11 8 7 7 7 4 3 4 6 2 5 6 2 5 2 3 3 3 6
14 14 13 12 12 12 12 13 13 12 12 13 13 13 15 15 14 15 15 13 14 14 11 11 8 8 10 6 4 5 7 7 8 3 3 3 4 1 3 4 3 2 3
15 14 13 13 12 13 13 13 14 12 12 13 15 16 16 16 15 15 15 14 14 13 12 11 9 11 9 6 7 7 7 5 4 4 4 4 2 1 2 3 3 4 5
15 14 15 13 12 13 13 14 14 14 15 15 14 16 16 16 16 16 15 12 12 12 9 8 10 10 9 9 8 6 4 1 4 2 4 4 3 2 1 1 3 3 3
13 16 15 14 14 15 15 15 15 15 14 17 16 17 14 13 12 14 13 12 11 12 10 10 9 8 6 4 6 7 5 5 4 3 4 4 5 3 5 2 4 4 6
13 15 17 15 17 15 14 16 15 16 15 15 15 16 14 12 13 13 11 10 12 11 10 11 8 10 8 10 11 12 3 7 5 4 4 5 6 6 4 6 6 6 5
21 17 18 16 17 17 17 17 16 15 14 14 15 14 13 12 14 15 10 10 11 9 9 8 10 9 9 9 8 6 7 7 5 3 6 5 7 9 6 6 4 5 2
21 21 19 17 17 18 18 16 16 12 14 13 13 13 12 10 11 15 11 10 9 10 11 11 11 11 12 11 10 9 8 7 5 4 4 4 5 5 6 6 5 4 5
23 21 20 18 18 20 17 16 16 13 14 13 13 14 15 12 9 15 12 12 12 11 10 10 9 8 9 5 10 11 9 8 5 6 6 8 8 7 6 5 5 6 4
22 21 21 17 18 20 14 17 16 13 14 13 13 13 13 15 9 14 11 9 10 8 7 8 9 3 11 10 10 10 9 10 9 8 7 6 7 5 2 5 6 5 5
19 21 19 15 18 13 17 15 13 13 12 12 12 10 14 15 10 4 5 5 9 7 7 8 6 9 8 6 1 8 8 8 7 7 7 7 7 7 6 6 6 5 6
20 16 18 17 14 12 17 14 15 14 14 14 14 12 11 12 10 7 8 7 4 8 3 7 8 10 10 7 5 5 6 4 5 6 6 6 7 7 6 5 5 5 4
18 19 17 20 11 15 15 17 13 16 13 12 13 13 13 10 8 10 10 8 12 5 8 12 15 11 10 9 8 9 7 4 3 5 4 4 5 6 3 5 6 4 2
18 18 20 11 11 14 14 15 14 13 13 13 12 12 11 11 10 9 7 9 13 11 13 10 8 8 2 10 7 6 7 4 5 4 5 5 5 5 5 4 5 6 5
17 18 11 12 13 14 9 7 12 9 10 13 11 12 12 12 11 11 11 10 8 10 11 10 9 8 8 8 8 8 6 7 5 4 6 5 5 5 4 5 4 3 5
12 11 12 12 11 11 11 12 19 12 19 15 13 11 8 16 15 15 14 16 18 14 10 9 9 6 8 7 7 6 6 5 5 6 6 6 6 5 4 4 5 6 5
11 14 10 14 13 14 11 11 11 15 26 23 20 18 17 15 19 17 16 16 11 4 3 7 8 6 7 6 5 4 5 4 5 5 5 4 4 3 3 3 3 3 4
12 17 13 13 13 13 13 11 11 11 12 11 17 12 16 17 18 17 15 13 7 4 6 7 6 6 6 5 5 4 4 4 4 4 4 5 4 3 4 3 4 3 2
15 11 12 12 10 8 13 13 12 12 12 9 8 10 11 14 14 13 7 8 6 4 2 6 6 6 6 5 4 4 4 4 4 5 4 5 4 4 4 4 3 4 2
16 17 12 9 10 10 12 11 13 12 12 10 9 7 5 9 7 8 7 8 7 5 3 2 6 6 5 4 4 5 4 4 5 4 4 2 4 4 4 4 2 5 5
13 9 14 13 13 13 12 13 12 11 12 10 10 7 9 9 8 7 7 7 3 7 2 4 5 5 2 2 4 5 5 5 5 7 6 4 1 0 4 5 6 6 5
13 13 14 13 13 11 11 11 11 12 13 11 9 5 9 9 7 8 8 7 6 6 6 7 6 5 5 6 6 3 3 5 5 5 6 5 5 6 3 2 2 1 3
14 15 14 11 12 13 11 12 11 12 12 12 11 9 9 9 9 9 9 8 7 8 7 8 6 7 8 5 6 7 6 4 3 2 3 3 4 4 6 7 7 7 7
15 14 12 13 12 11 12 12 13 14 12 12 11 10 9 8 10 11 8 7 6 7 10 9 9 10 8 6 5 8 8 7 7 8 9 9 8 7 7 7 7 7 8
13 10 12 12 11 11 14 13 14 13 13 12 10 10 10 9 10 10 8 9 9 10 13 11 9 12 13 14 12 11 9 10 9 8 8 9 12 12 10 10 9 9 5
11 11 11 11 12 13 12 12 12 12 13 11 12 9 10 10 10 10 9 10 11 11 12 11 13 16 15 13 13 11 10 12 13 10 9 8 8 8 8 9 12 8 10
Wind_Direction
265 262 269 266 259 254 254 253 249 249 250 224 223 210 205 206 201 195 205 199 198 210 215 199 199 222 222 216 231 231 212 225 252 171 123 123 157 262 253 245 225 222 150
257 265 270 270 259 258 257 262 258 248 239 236 228 215 213 206 197 197 201 207 192 207 203 205 202 206 221 218 215 234 235 240 259 38 86 156 231 204 304 257 263 230 135
260 263 264 259 258 257 257 258 260 254 243 233 225 220 211 203 194 199 202 210 191 199 202 202 204 206 198 211 224 207 217 229 227 224 182 165 129 87 281 269 227 117 85
265 267 267 268 264 258 254 251 252 248 244 234 228 224 215 205 197 197 204 202 184 193 191 195 211 193 203 199 220 232 253 222 212 169 141 162 160 181 127 211 142 133 95
267 267 263 266 261 255 253 257 252 247 240 237 223 223 211 208 198 194 196 195 176 190 184 198 205 187 189 207 215 204 213 212 234 174 168 202 174 172 189 193 155 154 106
259 270 268 262 268 256 245 239 244 245 236 235 229 215 210 210 166 171 182 170 189 186 185 195 164 124 118 92 78 52 109 239 239 202 184 208 198 185 210 184 164 155 157
282 269 265 260 257 259 255 256 235 230 233 225 227 208 203 195 138 130 145 178 188 181 182 186 191 184 177 185 100 106 100 89 47 255 202 198 182 181 176 181 187 216 28
264 263 268 262 253 255 249 247 246 218 219 212 210 195 181 136 141 129 159 184 172 178 185 187 208 164 184 191 182 196 200 190 194 222 206 177 189 170 184 194 171 163 128
257 260 264 257 251 252 247 245 239 212 205 199 192 178 144 143 157 141 170 166 174 180 184 195 191 201 157 180 187 198 198 147 91 57 75 101 114 157 184 153 181 186 163
251 261 259 256 250 251 251 244 222 204 195 189 172 162 133 149 164 163 188 181 166 178 172 132 65 235 155 175 204 201 185 173 166 144 126 109 150 131 237 224 204 208 190
256 257 259 253 254 252 250 235 200 187 174 153 144 132 151 154 150 120 78 294 157 171 192 177 133 114 142 147 253 203 186 165 150 165 153 157 168 166 190 205 221 236 185
253 268 267 250 245 238 229 204 182 166 148 148 138 137 144 143 128 97 62 48 121 199 158 106 108 112 104 97 116 148 103 83 168 165 171 172 173 173 192 185 203 224 281
251 249 248 252 244 230 200 185 164 150 141 150 150 145 139 141 129 86 67 55 50 68 76 92 110 109 116 95 122 118 109 98 137 166 174 178 175 156 173 206 190 222 237
243 246 246 223 210 188 166 158 143 149 158 154 145 145 144 150 149 155 135 115 107 103 110 115 133 123 78 110 138 161 157 153 145 161 171 162 143 167 181 190 188 202 211
237 244 210 174 155 144 76 138 156 144 154 151 150 152 156 157 160 151 158 163 152 124 126 140 147 149 152 160 156 172 170 160 191 180 159 169 187 193 175 183 199 234 221
246 189 155 143 124 118 109 93 44 66 63 70 100 142 73 101 104 104 98 98 113 149 160 148 152 175 155 161 164 163 166 159 158 160 173 178 186 196 180 205 217 222 232
219 146 133 129 128 133 122 112 110 67 65 51 69 80 90 108 98 101 111 114 119 156 157 158 156 164 158 152 151 157 136 144 158 166 183 178 166 188 184 215 240 242 245
126 126 137 129 133 134 130 116 119 121 113 92 44 75 90 97 104 112 115 124 137 135 145 145 142 149 152 145 150 150 130 149 161 177 175 167 168 188 188 205 221 243 262
124 115 119 109 111 104 128 139 127 121 105 107 99 69 76 89 109 120 136 131 128 114 135 132 133 136 137 140 151 140 149 162 184 183 186 177 177 203 186 211 221 249 313
126 114 110 111 129 134 124 109 108 123 126 115 111 114 118 120 128 156 150 133 134 124 106 146 137 138 163 156 135 151 153 164 187 202 150 178 196 168 197 233 217 238 205
120 140 140 130 129 137 128 137 133 126 122 118 116 114 103 111 97 79 66 101 113 122 114 109 97 93 112 159 173 189 172 181 177 159 173 141 141 115 198 208 205 221 231
134 125 121 136 129 124 115 111 119 113 113 105 100 91 119 96 92 86 76 72 75 80 87 88 90 73 81 63 50 63 98 149 146 177 150 173 212 217 190 48 50 14 58
121 123 129 119 119 111 116 115 120 122 119 116 111 103 95 102 105 96 87 82 83 81 73 85 86 77 67 32 14 64 56 38 48 316 195 157 76 56 53 56 45 51 56
115 123 120 118 130 124 111 126 111 105 112 107 106 103 100 100 98 92 88 80 62 71 74 65 55 55 64 36 356 43 33 20 37 29 50 59 60 56 74 79 67 60 61
106 118 130 122 123 116 120 121 120 119 112 110 108 104 103 98 98 94 90 87 77 74 76 79 73 69 65 65 64 62 44 41 70 85 82 73 67 56 63 67 71 72 67
118 122 123 122 127 127 121 122 124 121 115 114 112 109 111 106 104 103 98 96 97 90 87 79 75 78 79 73 70 60 53 51 57 52 80 85 92 102 102 91 71 67 66